Parkersburg, WV

11:16 PM EDT on October 23, 2019 (GMT -0400)
Wood County Wilson

Weather History for KPKB - August, 2019

Change the Weather History Date:

Friday, August 16, 2019

  Actual Average Record
Temperature  
Mean Temperature 74 °F 74 °F  
Max Temperature 86 °F 84 °F 95 °F (1965)
Min Temperature 62 °F 63 °F 48 °F (1889)
Degree Days  
Heating Degree Days 0 0  
Month to date heating degree days 0 0  
Since 1 June heating degree days 16 20  
Since 1 July heating degree days 0 1  
Cooling Degree Days 9 9  
Month to date cooling degree days 153 144  
Year to date cooling degree days 850 711  
Since 1 June cooling degree days 705 627  
Growing Degree Days 24 (Base 50)    
Moisture  
Dew Point 64 °F    
Average Humidity 71    
Maximum Humidity 93    
Minimum Humidity 48    
Precipitation  
Precipitation 0.00 in 0.12 in 1.47 in (1934)
Month to date precipitation 3.04 1.92  
Year to date precipitation 32.48 27.10  
Sea Level Pressure  
Sea Level Pressure 30.01 in    
Wind  
Wind Speed 2 mph (SSW)    
Max Wind Speed 8 mph    
Max Gust Speed -    
Visibility 10 miles    
Events      
T = Trace of Precipitation, MM = Missing Value Source: NWS Daily Summary

Daily Weather History Graph

Daily Weather History Graph

Search for Another Location

Airport or City:

Astronomy

Aug. 16, 2019 Rise Set
Actual Time 6:39 AM EDT 8:20 PM EDT
Civil Twilight 6:10 AM EDT 8:48 PM EDT
Nautical Twilight 5:35 AM EDT 9:23 PM EDT
Astronomical Twilight 4:59 AM EDT 9:59 PM EDT
Moon 9:19 PM EDT (8/16) 7:29 AM EDT (8/16)
Length of Visible Light 14h 38m
Length of Day
13h 40m
Full, 99% of the Moon is Illuminated
Aug 16
Full
Aug 23
Last Quarter
Aug 30
New
Sep 5
First Quarter
Sep 14
Full

Hourly Weather History & Observations

Time (EDT) Temp. Heat Index Dew Point Humidity Pressure Visibility Wind Dir Wind Speed Gust Speed Precip Events Conditions
12:53 AM 66.9 °F - 63.0 °F 87% 29.99 in 10.0 mi SSE 3.5 mph - N/A   Clear
1:53 AM 64.9 °F - 63.0 °F 93% 29.99 in 9.0 mi Calm Calm - N/A   Clear
2:53 AM 64.9 °F - 63.0 °F 93% 30.00 in 10.0 mi Calm Calm - N/A   Clear
3:53 AM 64.9 °F - 62.1 °F 90% 30.00 in 10.0 mi Calm Calm - N/A   Scattered Clouds
4:53 AM 64.0 °F - 62.1 °F 93% 30.00 in 10.0 mi Calm Calm - N/A   Partly Cloudy
5:53 AM 63.0 °F - 61.0 °F 93% 30.00 in 10.0 mi Calm Calm - N/A   Clear
6:53 AM 63.0 °F - 60.1 °F 90% 30.01 in 9.0 mi Calm Calm - N/A   Clear
7:53 AM 64.9 °F - 62.1 °F 90% 30.02 in 8.0 mi Calm Calm - N/A   Clear
8:53 AM 70.0 °F - 64.9 °F 84% 30.04 in 10.0 mi South 3.5 mph - N/A   Clear
9:53 AM 73.9 °F - 66.0 °F 76% 30.04 in 10.0 mi Calm Calm - N/A   Clear
10:53 AM 78.1 °F - 66.0 °F 66% 30.04 in 10.0 mi SSE 4.6 mph - N/A   Partly Cloudy
11:53 AM 80.1 °F 81.9 °F 64.9 °F 60% 30.04 in 10.0 mi WSW 5.8 mph - N/A   Clear
12:53 PM 82.0 °F 83.8 °F 64.9 °F 56% 30.03 in 10.0 mi West 8.1 mph - N/A   Mostly Cloudy
1:53 PM 82.9 °F 84.6 °F 64.9 °F 54% 30.02 in 10.0 mi Variable 4.6 mph - N/A   Partly Cloudy
2:53 PM 84.0 °F 84.9 °F 63.0 °F 49% 30.02 in 10.0 mi Variable 3.5 mph - N/A   Partly Cloudy
3:53 PM 82.9 °F 84.0 °F 63.0 °F 51% 30.01 in 10.0 mi WSW 5.8 mph - N/A   Scattered Clouds
4:53 PM 82.9 °F 84.0 °F 63.0 °F 51% 30.00 in 10.0 mi South 5.8 mph - N/A   Partly Cloudy
5:53 PM 82.0 °F 83.1 °F 63.0 °F 52% 29.99 in 10.0 mi SSW 3.5 mph - N/A   Partly Cloudy
6:53 PM 82.9 °F 84.4 °F 64.0 °F 53% 29.99 in 10.0 mi West 4.6 mph - N/A   Partly Cloudy
7:53 PM 79.0 °F - 64.9 °F 62% 29.99 in 10.0 mi Calm Calm - N/A   Clear
8:53 PM 73.0 °F - 68.0 °F 84% 29.99 in 10.0 mi Calm Calm - N/A   Clear
9:53 PM 71.1 °F - 66.9 °F 87% 30.00 in 9.0 mi Calm Calm - N/A   Clear
10:53 PM 68.0 °F - 66.0 °F 93% 30.01 in 9.0 mi Calm Calm - N/A   Clear